Regional Weather Roundup
Issued by NWS

Home | Current Version | Previous Version | Text Only | Print | Product List | Glossary Off
Versions: 1 2 3 4 5 6 7 8 9 10 11 12 13 14 15 16 17 18 19 20 21 22 23 24 25 26 27 28 29 30 31 32 33 34 35 36 37 38 39 40 41 42 43 44 45 46 47 48 49 50

000
ASUS43 KMKX 191621
RWRWI

WISCONSIN REGIONAL WEATHER ROUNDUP
NATIONAL WEATHER SERVICE MILWAUKEE/SULLIVAN WI
1000 AM CST THU JAN 19 2017

NOTE: "FAIR" INDICATES FEW OR NO CLOUDS BELOW 12,000 FEET WITH NO
SIGNIFICANT WEATHER AND/OR OBSTRUCTIONS TO VISIBILITY.

WIZ001-002-006>008-014>016-023>028-191700-
NORTHWEST WISCONSIN

CITY           SKY/WX    TMP DP  RH WIND       PRES   REMARKS
SUPERIOR ARPT  SUNNY     37  32  82 SW12      29.79S WCI  29
ASHLAND          N/A     37  33  85 S7        29.82S WCI  32
HAYWARD        SUNNY     35  30  82 S8        29.82S WCI  29
SIREN          SUNNY     35  32  88 S6        29.79F WCI  30
CUMBERLAND     FOG       32  30  93 SE6       29.82F VSB 3/4 WCI  26
RICE LAKE      FOG       32  32 100 SE9       29.85F VSB 1/4 WCI  24
CHETEK         FOG       32  32 100 SE7       29.85F VSB 1/2 WCI  25
LADYSMITH      FOG       34  33  98 SE5       29.87F VSB 3/4 WCI  30
EAU CLAIRE     SUNNY     32  32 100 SE5       29.85F FOG     WCI  27
MENOMONIE        N/A    N/A N/A N/A MISG        N/A
NEW RICHMOND   SUNNY     36  32  85 S8        29.82S WCI  29
OSCEOLA        SUNNY     35  35 100 SE6       29.84S WCI  30
$$

WIZ003>005-009-010-017-018-191700-
NORTH CENTRAL WISCONSIN

CITY           SKY/WX    TMP DP  RH WIND       PRES   REMARKS
MANITOWISH WTR NOT AVBL
ARBOR VITAE    FOG       34  33  96 S8        29.85S VSB 1/2 WCI  27
WOODRUFF       FOG       34  33  96 S8        29.85S VSB 1/2 WCI  27
RHINELANDER    FOG       32  32 100 SW6       29.87F VSB 1/2 WCI  26
EAGLE RIVER    FOG       32  32 100 SW5       29.85F VSB 1   WCI  27
LAND O LAKES   FOG       33  33 100 S5        29.86S VSB 3/4 WCI  28
PHILLIPS       CLOUDY    32  32 100 S7        29.85S FOG     WCI  26
TOMAHAWK       FOG       32  31  98 CALM      29.88F VSB 1
MEDFORD        FOG       31  31  99 SE3       29.86F VSB<1/4
MERRILL        FOG       32  32 100 CALM        N/A  VSB 1/2
$$

WIZ029-030-035-036-043>047-191700-
CENTRAL WISCONSIN

CITY           SKY/WX    TMP DP  RH WIND       PRES   REMARKS
WAUSAU         FOG       32  32 100 CALM      29.88F VSB<1/4
MOSINEE        FOG       30  30 100 CALM      29.90F VSB 1/8
MARSHFIELD     FOG       31  30  96 SE7       29.89R VSB<1/4 WCI  24
STEVENS POINT  FOG       31  31 100 SE7       29.93R VSB 1/4 WCI  24
WAUPACA        CLOUDY    35  33  94 CALM      29.95R FOG
WAUTOMA        FOG       34  34 100 SE7       29.95R VSB 1/4 WCI  28
WISC RAPIDS    CLOUDY    32  32 100 MISG      29.93R
CAMP DOUGLAS   CLOUDY    32  32 100 SE5       29.91S FOG     WCI  27
$$

WIZ011>013-019>022-031-037>040-048>050-191700-
NORTHEAST WISCONSIN

CITY           SKY/WX    TMP DP  RH WIND       PRES   REMARKS
ANTIGO         SNOW      30  30 100 CALM      29.90S VSB 1/4
SHAWANO        CLOUDY    35  33  94 CALM      29.94S FOG
OCONTO         CLOUDY    32  32  98 SW3       29.95F
STURGEON BAY   FOG       33  32  96 S8        29.97S VSB 1/2 WCI  26
GREEN BAY      FOG       34  34 100 S6        29.96S VSB 1   WCI  29
MANITOWOC      CLOUDY    34  32  92 MISG      29.98R FOG
APPLETON       FOG       32  32 100 MISG      29.93R VSB 1/4
CLINTONVILLE   FOG       32  32 100 CALM      29.94S VSB 1
OSHKOSH        FOG       32  31  96 S9        29.95R VSB 1/4 WCI  24
$$

WIZ032>034-041-042-053>061-191700-
SOUTHWEST WISCONSIN

CITY           SKY/WX    TMP DP  RH WIND       PRES   REMARKS
LA CROSSE      CLOUDY    35  32  88 S12       29.91S FOG     WCI  27
SPARTA         SUNNY     32  32 100 CALM      29.91S FOG
VIROQUA        CLOUDY    32  32 100 SE6       29.89F VSB<1/4 WCI  26
BOSCOBEL       CLOUDY    34  32  92 CALM      29.93S FOG
PRAIRIE DU CHI FOG       32  32  99 CALM      29.92S VSB 3/4
PLATTEVILLE    CLOUDY    32  32 100 E6        29.91F VSB<1/4 WCI  26
$$

WIZ056-057-062-063-064-067-068-191700-
SOUTH CENTRAL WISCONSIN

CITY           SKY/WX    TMP DP  RH WIND       PRES   REMARKS
REEDSBURG      FOG       32  32 100 S6        29.93R VSB 1/4 WCI  26
BARABOO/DELLS  FOG       32  32 100 S5        29.92F VSB 3/4 WCI  27
LONE ROCK      FOG       33  32  96 E5        29.94F VSB 1/4 WCI  29
MINERAL POINT  MIX PCPN  34  34 100 SE7       29.92R VSB<1/4 WCI  28
MADISON        FOG       32  32 100 S8        29.95S VSB 1/8 WCI  25
MIDDLETON      CLOUDY    34  34 100 S7        29.94S VSB 1/4 WCI  28
WATERTOWN      FOG       32  32 100 SE3       29.96R VSB 1/4
MONROE         SNOW      32  32 100 SE7       29.93S VSB<1/4 WCI  26
JANESVILLE     FOG       34  34 100 SE7       29.96R VSB 1/4 WCI  28
$$

WIZ051-052-058>065-066-070>072-191700-
SOUTHEAST WISCONSIN

CITY           SKY/WX    TMP DP  RH WIND       PRES   REMARKS
MILWAUKEE      FOG       34  32  92 S6        29.99S VSB 1/4 WCI  29
WAUKESHA       FOG       30  30 100 CALM      29.98S VSB 1/8
MILWAUKEE/TIMM FOG       34  30  86 SW3       30.00R VSB 1/2
RACINE         FOG       34  34 100 S5        30.00S VSB 1/4 WCI  30
KENOSHA        FOG       34  33  96 SW6       29.99R VSB<1/4 WCI  29
FOND DU LAC    FOG       32  30  92 S9        29.96R VSB 1/2 WCI  24
SHEBOYGAN      CLOUDY    33  32  96 S6        29.98S FOG     WCI  28
WEST BEND      SNOW      32  32 100 SE5       29.98R VSB<1/4 WCI  27
JUNEAU         FOG       32  31  99 SE9       29.97S VSB<1/4 WCI  24
$$

LSZ147-162-191700-
LAKE SUPERIOR

STATION/POSITION TIME  TEMP    WIND        PRES    WAVE
                       AIR SEA DIR/SP/G            HT/PER
                 (UTC) (F)     (DEG/KT/KT) (MB)    (FT/S)
DEVILS ISLAND    1600   35     170/  6/ 10 1010.3F
PORT WING        1540   38     200/  4/  5 1009.5S
SAXON HARBOR     1540   38     170/  3/  6 1009.8S
$$

LMZ867-665-643>646-191700-
LAKE MICHIGAN

STATION/POSITION TIME  TEMP    WIND        PRES    WAVE
                       AIR SEA DIR/SP/G            HT/PER
                 (UTC) (F)     (DEG/KT/KT) (MB)    (FT/S)
NORTHPORT PIER   1600   32      CALM  /  9 1014.2
SISTER BAY       1535   33     230/  7/  9   N/A
KEWAUNEE LAKESHO 1554   33     180/  7/  8 1014.6F
SHEBOYGAN LAKESH 1600   34     150/  4/  5 1015.5F
PORT WASHINGTON  1540   34     180/  7/  9 1016.3F
MILWAUKEE LAKESH 1600   33     170/  6/  7   N/A
KENOSHA   LAKESH 1600   34      CALM  /  3 1015.9
$$

TC  - TEMPERATURE IN CELSIUS
VSB - VISIBILITY IN STATUTE MILES
WCI - WIND CHILL INDEX
HX  - HEAT INDEX




USA.gov is the U.S. government's official web portal to all federal, state and local government web resources and services.